Time,TemperatureF,DewpointF,PressureIn,WindDirection,WindDirectionDegrees,WindSpeedMPH,WindSpeedGustMPH,Humidity,HourlyPrecipIn,Conditions,Clouds,dailyrainin,SoftwareType,DateUTC
2013-10-30 00:00:00,50.0,38.3,29.96,WSW,253,2.0,5.0,64,0.00,,---,0.00,VWS V14.01,2013-10-30 07:00:00,
2013-10-30 00:05:00,50.1,38.0,29.97,SSW,204,1.0,5.0,63,0.00,,---,0.00,VWS V14.01,2013-10-30 07:05:00,
2013-10-30 00:10:00,50.2,38.1,29.97,SW,228,4.0,6.0,63,0.00,,---,0.00,VWS V14.01,2013-10-30 07:10:00,
2013-10-30 00:15:00,50.4,37.9,29.96,WSW,250,2.0,6.0,62,0.00,,---,0.00,VWS V14.01,2013-10-30 07:15:00,
2013-10-30 00:20:00,50.5,38.0,29.96,West,264,4.0,8.0,62,0.00,,---,0.00,VWS V14.01,2013-10-30 07:20:00,
2013-10-30 00:26:00,50.6,38.1,29.97,West,270,4.0,8.0,62,0.00,,---,0.00,VWS V14.01,2013-10-30 07:26:00,
2013-10-30 00:31:00,50.7,37.8,29.97,West,270,3.0,6.0,61,0.00,,---,0.00,VWS V14.01,2013-10-30 07:31:00,
2013-10-30 00:36:00,50.6,37.7,29.97,WSW,246,2.0,6.0,61,0.00,,---,0.00,VWS V14.01,2013-10-30 07:36:00,
2013-10-30 00:41:00,50.5,38.0,29.97,West,272,4.0,6.0,62,0.00,,---,0.00,VWS V14.01,2013-10-30 07:41:00,
2013-10-30 00:46:00,50.4,37.9,29.98,West,276,5.0,5.0,62,0.00,,---,0.00,VWS V14.01,2013-10-30 07:46:00,
2013-10-30 00:51:00,50.3,37.8,29.98,WSW,257,0.0,5.0,62,0.00,,---,0.00,VWS V14.01,2013-10-30 07:51:00,
2013-10-30 00:56:00,50.2,37.7,29.98,West,279,3.0,7.0,62,0.00,,---,0.00,VWS V14.01,2013-10-30 07:56:00,
2013-10-30 01:01:00,50.1,38.0,29.97,West,259,4.0,6.0,63,0.00,,---,0.00,VWS V14.01,2013-10-30 08:01:00,
2013-10-30 01:06:00,49.9,37.8,29.97,West,273,3.0,6.0,63,0.00,,---,0.00,VWS V14.01,2013-10-30 08:06:00,
2013-10-30 01:11:00,49.8,38.1,29.97,West,273,5.0,8.0,64,0.00,,---,0.00,VWS V14.01,2013-10-30 08:11:00,
2013-10-30 01:16:00,49.7,38.0,29.98,WSW,256,1.0,5.0,64,0.00,,---,0.00,VWS V14.01,2013-10-30 08:16:00,
2013-10-30 01:21:00,49.4,38.1,29.97,West,281,3.0,8.0,65,0.00,,---,0.00,VWS V14.01,2013-10-30 08:21:00,
2013-10-30 01:26:00,49.4,38.1,29.98,WNW,284,7.0,12.0,65,0.00,,---,0.00,VWS V14.01,2013-10-30 08:26:00,
2013-10-30 01:31:00,49.6,38.3,29.98,West,267,4.0,9.0,65,0.00,,---,0.00,VWS V14.01,2013-10-30 08:31:00,
2013-10-30 01:36:00,49.7,38.0,29.98,West,271,9.0,11.0,64,0.00,,---,0.00,VWS V14.01,2013-10-30 08:36:00,
2013-10-30 01:41:00,50.0,38.3,29.98,WNW,286,10.0,13.0,64,0.00,,---,0.00,VWS V14.01,2013-10-30 08:41:00,
2013-10-30 01:46:00,50.1,38.0,29.98,WNW,282,5.0,10.0,63,0.00,,---,0.00,VWS V14.01,2013-10-30 08:46:00,
2013-10-30 01:51:00,50.0,37.9,29.98,WSW,256,6.0,11.0,63,0.00,,---,0.00,VWS V14.01,2013-10-30 08:51:00,
2013-10-30 01:56:00,49.9,37.8,29.98,WNW,294,6.0,12.0,63,0.00,,---,0.00,VWS V14.01,2013-10-30 08:56:00,
2013-10-30 02:01:00,49.8,38.1,29.98,WNW,285,10.0,10.0,64,0.00,,---,0.00,VWS V14.01,2013-10-30 09:01:00,
2013-10-30 02:06:00,49.6,37.9,29.98,West,276,10.0,11.0,64,0.00,,---,0.00,VWS V14.01,2013-10-30 09:06:00,
2013-10-30 02:11:00,49.5,37.8,29.98,WNW,300,6.0,11.0,64,0.00,,---,0.00,VWS V14.01,2013-10-30 09:11:00,
2013-10-30 02:16:00,49.3,37.7,29.98,WNW,286,9.0,9.0,64,0.00,,---,0.00,VWS V14.01,2013-10-30 09:16:00,
2013-10-30 02:21:00,48.9,37.7,29.98,WNW,294,6.0,9.0,65,0.00,,---,0.00,VWS V14.01,2013-10-30 09:21:00,
2013-10-30 02:26:00,48.6,37.8,29.98,WNW,303,6.0,9.0,66,0.00,,---,0.00,VWS V14.01,2013-10-30 09:26:00,
2013-10-30 02:31:00,48.3,37.5,29.98,WNW,285,4.0,9.0,66,0.00,,---,0.00,VWS V14.01,2013-10-30 09:31:00,
2013-10-30 02:36:00,48.2,37.8,29.98,WNW,286,6.0,10.0,67,0.00,,---,0.00,VWS V14.01,2013-10-30 09:36:00,
2013-10-30 02:41:00,48.3,37.9,29.98,West,277,4.0,10.0,67,0.00,,---,0.00,VWS V14.01,2013-10-30 09:41:00,
2013-10-30 02:46:00,48.2,37.8,29.98,West,274,6.0,7.0,67,0.00,,---,0.00,VWS V14.01,2013-10-30 09:46:00,
2013-10-30 02:51:00,48.2,37.8,29.98,WNW,294,4.0,7.0,67,0.00,,---,0.00,VWS V14.01,2013-10-30 09:51:00,
2013-10-30 02:56:00,48.1,38.0,29.98,WNW,284,3.0,7.0,68,0.00,,---,0.00,VWS V14.01,2013-10-30 09:56:00,
2013-10-30 03:01:00,48.0,38.0,29.98,West,264,1.0,6.0,68,0.00,,---,0.00,VWS V14.01,2013-10-30 10:01:00,
2013-10-30 03:06:00,47.8,37.8,29.98,West,276,0.0,6.0,68,0.00,,---,0.00,VWS V14.01,2013-10-30 10:06:00,
2013-10-30 03:11:00,47.7,37.7,29.98,West,269,5.0,6.0,68,0.00,,---,0.00,VWS V14.01,2013-10-30 10:11:00,
2013-10-30 03:16:00,47.7,37.7,29.98,WNW,299,5.0,7.0,68,0.00,,---,0.00,VWS V14.01,2013-10-30 10:16:00,
2013-10-30 03:21:00,47.8,37.8,29.98,WNW,283,6.0,9.0,68,0.00,,---,0.00,VWS V14.01,2013-10-30 10:21:00,
2013-10-30 03:26:00,47.9,37.9,29.98,West,267,3.0,9.0,68,0.00,,---,0.00,VWS V14.01,2013-10-30 10:26:00,
2013-10-30 03:31:00,47.8,37.8,29.98,WNW,290,3.0,9.0,68,0.00,,---,0.00,VWS V14.01,2013-10-30 10:31:00,
2013-10-30 03:36:00,47.6,37.2,29.98,WNW,291,3.0,9.0,67,0.00,,---,0.00,VWS V14.01,2013-10-30 10:36:00,
2013-10-30 03:41:00,47.5,37.1,29.99,West,271,4.0,9.0,67,0.00,,---,0.00,VWS V14.01,2013-10-30 10:41:00,
2013-10-30 03:46:00,47.3,37.3,29.98,West,281,0.0,3.0,68,0.00,,---,0.00,VWS V14.01,2013-10-30 10:46:00,
2013-10-30 03:51:00,47.1,37.1,29.99,WNW,287,4.0,4.0,68,0.00,,---,0.00,VWS V14.01,2013-10-30 10:51:00,
2013-10-30 03:56:00,46.9,36.9,29.99,West,264,2.0,4.0,68,0.00,,---,0.00,VWS V14.01,2013-10-30 10:56:00,
2013-10-30 04:01:00,46.7,36.7,29.99,West,272,0.0,1.0,68,0.00,,---,0.00,VWS V14.01,2013-10-30 11:01:00,
2013-10-30 04:06:00,46.5,36.9,29.99,West,272,0.0,1.0,69,0.00,,---,0.00,VWS V14.01,2013-10-30 11:06:00,
2013-10-30 04:11:00,46.3,36.7,29.99,West,273,0.0,1.0,69,0.00,,---,0.00,VWS V14.01,2013-10-30 11:11:00,
2013-10-30 04:16:00,46.1,36.5,29.99,West,273,0.0,0.0,69,0.00,,---,0.00,VWS V14.01,2013-10-30 11:16:00,
2013-10-30 04:21:00,45.6,36.4,29.99,West,272,0.0,0.0,70,0.00,,---,0.00,VWS V14.01,2013-10-30 11:21:00,
2013-10-30 04:26:00,45.2,36.4,29.99,NE,49,0.0,3.0,71,0.00,,---,0.00,VWS V14.01,2013-10-30 11:26:00,
2013-10-30 04:31:00,44.8,36.7,29.99,NE,51,0.0,0.0,73,0.00,,---,0.00,VWS V14.01,2013-10-30 11:31:00,
2013-10-30 04:36:00,44.7,36.6,29.99,NE,51,0.0,0.0,73,0.00,,---,0.00,VWS V14.01,2013-10-30 11:36:00,
2013-10-30 04:41:00,44.4,36.7,29.99,NE,51,0.0,0.0,74,0.00,,---,0.00,VWS V14.01,2013-10-30 11:41:00,
2013-10-30 04:46:00,44.1,36.7,29.99,NE,51,0.0,0.0,75,0.00,,---,0.00,VWS V14.01,2013-10-30 11:46:00,
2013-10-30 04:51:00,44.2,36.8,29.99,NE,51,0.0,0.0,75,0.00,,---,0.00,VWS V14.01,2013-10-30 11:51:00,
2013-10-30 04:56:00,43.9,36.8,30.00,NE,51,0.0,0.0,76,0.00,,---,0.00,VWS V14.01,2013-10-30 11:56:00,
2013-10-30 05:01:00,43.8,36.7,30.00,ESE,105,0.0,0.0,76,0.00,,---,0.00,VWS V14.01,2013-10-30 12:01:00,
2013-10-30 05:06:00,43.5,36.8,30.00,ESE,122,0.0,0.0,77,0.00,,---,0.00,VWS V14.01,2013-10-30 12:06:00,
2013-10-30 05:11:00,43.5,36.8,30.00,ESE,122,0.0,0.0,77,0.00,,---,0.00,VWS V14.01,2013-10-30 12:11:00,
2013-10-30 05:16:00,43.3,36.6,30.00,SE,136,0.0,0.0,77,0.00,,---,0.00,VWS V14.01,2013-10-30 12:16:00,
2013-10-30 05:21:00,43.2,36.8,30.00,SE,139,0.0,0.0,78,0.00,,---,0.00,VWS V14.01,2013-10-30 12:21:00,
2013-10-30 05:26:00,43.1,36.4,30.00,SE,135,0.0,0.0,77,0.00,,---,0.00,VWS V14.01,2013-10-30 12:26:00,
2013-10-30 05:31:00,43.0,36.6,30.00,SE,134,0.0,0.0,78,0.00,,---,0.00,VWS V14.01,2013-10-30 12:31:00,
2013-10-30 05:36:00,42.9,36.5,30.00,SE,139,0.0,0.0,78,0.00,,---,0.00,VWS V14.01,2013-10-30 12:36:00,
2013-10-30 05:42:00,42.8,36.4,30.01,SE,141,0.0,0.0,78,0.00,,---,0.00,VWS V14.01,2013-10-30 12:42:00,
2013-10-30 05:47:00,42.6,36.2,30.01,SSE,162,0.0,0.0,78,0.00,,---,0.00,VWS V14.01,2013-10-30 12:47:00,
2013-10-30 05:52:00,42.4,36.4,30.01,SSE,151,0.0,0.0,79,0.00,,---,0.00,VWS V14.01,2013-10-30 12:52:00,
2013-10-30 05:57:00,42.2,36.2,30.01,SSE,165,0.0,0.0,79,0.00,,---,0.00,VWS V14.01,2013-10-30 12:57:00,
2013-10-30 06:02:00,41.9,35.9,30.01,SSE,160,0.0,0.0,79,0.00,,---,0.00,VWS V14.01,2013-10-30 13:02:00,
2013-10-30 06:07:00,41.7,36.0,30.01,SE,142,1.0,2.0,80,0.00,,---,0.00,VWS V14.01,2013-10-30 13:07:00,
2013-10-30 06:12:00,41.9,36.2,30.02,SE,146,0.0,2.0,80,0.00,,---,0.00,VWS V14.01,2013-10-30 13:12:00,
2013-10-30 06:17:00,42.0,36.3,30.02,SE,128,0.0,0.0,80,0.00,,---,0.00,VWS V14.01,2013-10-30 13:17:00,
2013-10-30 06:22:00,42.2,36.2,30.02,SE,131,0.0,0.0,79,0.00,,---,0.00,VWS V14.01,2013-10-30 13:22:00,
2013-10-30 06:27:00,42.0,36.0,30.02,SE,131,0.0,0.0,79,0.00,,---,0.00,VWS V14.01,2013-10-30 13:27:00,
2013-10-30 06:32:00,41.9,36.2,30.03,SE,146,0.0,0.0,80,0.00,,---,0.00,VWS V14.01,2013-10-30 13:32:00,
2013-10-30 06:37:00,42.0,36.3,30.03,SE,135,0.0,0.0,80,0.00,,---,0.00,VWS V14.01,2013-10-30 13:37:00,
2013-10-30 06:42:00,42.1,36.1,30.03,SE,142,0.0,1.0,79,0.00,,---,0.00,VWS V14.01,2013-10-30 13:42:00,
2013-10-30 06:47:00,42.0,36.0,30.03,SE,142,0.0,0.0,79,0.00,,---,0.00,VWS V14.01,2013-10-30 13:47:00,
2013-10-30 06:52:00,41.8,35.8,30.03,SE,142,0.0,0.0,79,0.00,,---,0.00,VWS V14.01,2013-10-30 13:52:00,
2013-10-30 06:57:00,41.4,35.4,30.03,SSE,153,0.0,0.0,79,0.00,,---,0.00,VWS V14.01,2013-10-30 13:57:00,
2013-10-30 07:02:00,41.1,35.4,30.03,South,172,2.0,2.0,80,0.00,,---,0.00,VWS V14.01,2013-10-30 14:02:00,
2013-10-30 07:07:00,41.0,35.6,30.03,SSE,148,0.0,2.0,81,0.00,,---,0.00,VWS V14.01,2013-10-30 14:07:00,
2013-10-30 07:12:00,41.3,35.9,30.03,SE,138,0.0,2.0,81,0.00,,---,0.00,VWS V14.01,2013-10-30 14:12:00,
2013-10-30 07:17:00,41.3,35.9,30.03,SE,142,0.0,0.0,81,0.00,,---,0.00,VWS V14.01,2013-10-30 14:17:00,
2013-10-30 07:22:00,41.3,35.9,30.04,SSE,155,0.0,0.0,81,0.00,,---,0.00,VWS V14.01,2013-10-30 14:22:00,
2013-10-30 07:27:00,41.5,36.1,30.04,SE,145,0.0,0.0,81,0.00,,---,0.00,VWS V14.01,2013-10-30 14:27:00,
2013-10-30 07:32:00,42.2,36.5,30.04,SSE,149,0.0,2.0,80,0.00,,---,0.00,VWS V14.01,2013-10-30 14:32:00,
2013-10-30 07:37:00,42.8,36.8,30.04,SE,134,0.0,2.0,79,0.00,,---,0.00,VWS V14.01,2013-10-30 14:37:00,
2013-10-30 07:42:00,43.4,37.0,30.04,SE,142,0.0,2.0,78,0.00,,---,0.00,VWS V14.01,2013-10-30 14:42:00,
2013-10-30 07:47:00,44.1,37.0,30.04,SE,145,0.0,0.0,76,0.00,,---,0.00,VWS V14.01,2013-10-30 14:47:00,
2013-10-30 07:52:00,44.6,37.2,30.04,SSE,149,0.0,0.0,75,0.00,,---,0.00,VWS V14.01,2013-10-30 14:52:00,
2013-10-30 07:57:00,45.3,37.2,30.04,SSE,149,0.0,0.0,73,0.00,,---,0.00,VWS V14.01,2013-10-30 14:57:00,
2013-10-30 08:02:00,46.1,37.6,30.05,SSE,147,0.0,0.0,72,0.00,,---,0.00,VWS V14.01,2013-10-30 15:02:00,
2013-10-30 08:07:00,46.7,37.8,30.05,SSE,148,0.0,0.0,71,0.00,,---,0.00,VWS V14.01,2013-10-30 15:07:00,
2013-10-30 08:12:00,47.6,38.3,30.05,SSE,148,0.0,0.0,70,0.00,,---,0.00,VWS V14.01,2013-10-30 15:12:00,
2013-10-30 08:17:00,48.6,38.5,30.05,SSE,148,0.0,0.0,68,0.00,,---,0.00,VWS V14.01,2013-10-30 15:17:00,
2013-10-30 08:22:00,48.4,37.6,30.06,SSE,148,0.0,0.0,66,0.00,,---,0.00,VWS V14.01,2013-10-30 15:22:00,
2013-10-30 08:27:00,47.9,37.9,30.06,SSE,148,0.0,0.0,68,0.00,,---,0.00,VWS V14.01,2013-10-30 15:27:00,
2013-10-30 08:32:00,47.8,38.1,30.06,ESE,103,0.0,0.0,69,0.00,,---,0.00,VWS V14.01,2013-10-30 15:32:00,
2013-10-30 08:37:00,48.0,38.3,30.06,ENE,77,0.0,0.0,69,0.00,,---,0.00,VWS V14.01,2013-10-30 15:37:00,
2013-10-30 08:42:00,48.4,38.3,30.06,ENE,77,0.0,0.0,68,0.00,,---,0.00,VWS V14.01,2013-10-30 15:42:00,
2013-10-30 08:47:00,49.1,38.2,30.07,NE,49,0.0,0.0,66,0.00,,---,0.00,VWS V14.01,2013-10-30 15:47:00,
2013-10-30 08:52:00,49.4,38.1,30.07,NE,41,0.0,2.0,65,0.00,,---,0.00,VWS V14.01,2013-10-30 15:52:00,
2013-10-30 08:57:00,49.4,37.8,30.07,North,6,0.0,3.0,64,0.00,,---,0.00,VWS V14.01,2013-10-30 15:57:00,
2013-10-30 09:02:00,49.5,37.8,30.07,North,358,0.0,2.0,64,0.00,,---,0.00,VWS V14.01,2013-10-30 16:02:00,
2013-10-30 09:07:00,49.6,37.9,30.08,North,349,1.0,3.0,64,0.00,,---,0.00,VWS V14.01,2013-10-30 16:07:00,
2013-10-30 09:12:00,49.7,37.6,30.08,North,355,2.0,3.0,63,0.00,,---,0.00,VWS V14.01,2013-10-30 16:12:00,
2013-10-30 09:17:00,49.9,37.8,30.08,North,360,1.0,3.0,63,0.00,,---,0.00,VWS V14.01,2013-10-30 16:17:00,
2013-10-30 09:22:00,50.1,37.6,30.08,NNW,347,3.0,4.0,62,0.00,,---,0.00,VWS V14.01,2013-10-30 16:22:00,
2013-10-30 09:27:00,49.9,37.8,30.08,NNE,25,4.0,6.0,63,0.00,,---,0.00,VWS V14.01,2013-10-30 16:27:00,
2013-10-30 09:32:00,50.0,37.9,30.08,NNW,329,1.0,4.0,63,0.00,,---,0.00,VWS V14.01,2013-10-30 16:32:00,
2013-10-30 09:37:00,50.2,37.7,30.08,North,356,3.0,5.0,62,0.00,,---,0.00,VWS V14.01,2013-10-30 16:37:00,
2013-10-30 09:42:00,50.1,37.6,30.08,North,6,1.0,5.0,62,0.00,,---,0.00,VWS V14.01,2013-10-30 16:42:00,
2013-10-30 09:47:00,50.1,38.0,30.08,NNW,335,1.0,3.0,63,0.00,,---,0.00,VWS V14.01,2013-10-30 16:47:00,
2013-10-30 09:52:00,50.3,37.8,30.08,NNE,19,4.0,4.0,62,0.00,,---,0.00,VWS V14.01,2013-10-30 16:52:00,
2013-10-30 09:57:00,50.5,38.0,30.08,NE,36,0.0,4.0,62,0.00,,---,0.00,VWS V14.01,2013-10-30 16:57:00,
2013-10-30 10:02:00,50.8,38.3,30.08,NNW,339,1.0,1.0,62,0.00,,---,0.00,VWS V14.01,2013-10-30 17:02:00,
2013-10-30 10:07:00,51.4,38.4,30.08,NNW,339,0.0,2.0,61,0.00,,---,0.00,VWS V14.01,2013-10-30 17:07:00,
2013-10-30 10:12:00,51.8,37.9,30.08,NE,42,2.0,4.0,59,0.00,,---,0.00,VWS V14.01,2013-10-30 17:12:00,
2013-10-30 10:17:00,52.1,37.3,30.08,ENE,67,0.0,5.0,57,0.00,,---,0.00,VWS V14.01,2013-10-30 17:17:00,
2013-10-30 10:22:00,52.4,37.6,30.08,ENE,67,2.0,5.0,57,0.00,,---,0.00,VWS V14.01,2013-10-30 17:22:00,
2013-10-30 10:27:00,52.6,37.8,30.08,NE,41,2.0,5.0,57,0.00,,---,0.00,VWS V14.01,2013-10-30 17:27:00,
2013-10-30 10:32:00,52.8,37.5,30.08,North,8,0.0,4.0,56,0.00,,---,0.00,VWS V14.01,2013-10-30 17:32:00,
2013-10-30 10:37:00,53.3,37.6,30.08,ENE,74,3.0,4.0,55,0.00,,---,0.00,VWS V14.01,2013-10-30 17:37:00,
2013-10-30 10:42:00,53.7,37.5,30.08,East,91,0.0,4.0,54,0.00,,---,0.00,VWS V14.01,2013-10-30 17:42:00,
2013-10-30 10:47:00,54.1,36.9,30.08,NE,56,1.0,4.0,52,0.00,,---,0.00,VWS V14.01,2013-10-30 17:47:00,
2013-10-30 10:52:00,53.9,36.7,30.08,ENE,60,2.0,5.0,52,0.00,,---,0.00,VWS V14.01,2013-10-30 17:52:00,
2013-10-30 10:57:00,54.2,36.5,30.08,NE,51,4.0,7.0,51,0.00,,---,0.00,VWS V14.01,2013-10-30 17:57:00,
2013-10-30 11:02:00,54.0,35.8,30.08,North,359,4.0,8.0,50,0.00,,---,0.00,VWS V14.01,2013-10-30 18:02:00,
2013-10-30 11:07:00,54.4,35.7,30.08,North,352,0.0,9.0,49,0.00,,---,0.00,VWS V14.01,2013-10-30 18:07:00,
2013-10-30 11:12:00,54.7,35.4,30.08,NW,322,0.0,9.0,48,0.00,,---,0.00,VWS V14.01,2013-10-30 18:12:00,
2013-10-30 11:17:00,54.8,35.5,30.08,NE,35,0.0,7.0,48,0.00,,---,0.00,VWS V14.01,2013-10-30 18:17:00,
2013-10-30 11:22:00,55.0,35.7,30.08,NE,35,6.0,10.0,48,0.00,,---,0.00,VWS V14.01,2013-10-30 18:22:00,
2013-10-30 11:27:00,55.5,36.2,30.08,NNE,13,8.0,10.0,48,0.00,,---,0.00,VWS V14.01,2013-10-30 18:27:00,
2013-10-30 11:32:00,56.0,36.1,30.07,NNE,16,5.0,8.0,47,0.00,,---,0.00,VWS V14.01,2013-10-30 18:32:00,
2013-10-30 11:37:00,56.1,35.6,30.07,NE,38,7.0,11.0,46,0.00,,---,0.00,VWS V14.01,2013-10-30 18:37:00,
2013-10-30 11:42:00,56.2,35.7,30.07,NE,51,7.0,11.0,46,0.00,,---,0.00,VWS V14.01,2013-10-30 18:42:00,
2013-10-30 11:47:00,56.1,35.1,30.07,NE,44,0.0,7.0,45,0.00,,---,0.00,VWS V14.01,2013-10-30 18:47:00,
2013-10-30 11:52:00,56.5,35.4,30.07,East,96,5.0,10.0,45,0.00,,---,0.00,VWS V14.01,2013-10-30 18:52:00,
2013-10-30 11:57:00,56.8,35.1,30.07,NE,49,6.0,10.0,44,0.00,,---,0.00,VWS V14.01,2013-10-30 18:57:00,
2013-10-30 12:02:00,56.9,35.8,30.06,NNE,27,7.0,13.0,45,0.00,,---,0.00,VWS V14.01,2013-10-30 19:02:00,
2013-10-30 12:07:00,56.8,35.1,30.06,NNE,33,10.0,13.0,44,0.00,,---,0.00,VWS V14.01,2013-10-30 19:07:00,
2013-10-30 12:12:00,56.8,35.7,30.06,NE,49,9.0,13.0,45,0.00,,---,0.00,VWS V14.01,2013-10-30 19:12:00,
2013-10-30 12:17:00,57.2,36.1,30.06,ENE,73,5.0,9.0,45,0.00,,---,0.00,VWS V14.01,2013-10-30 19:17:00,
2013-10-30 12:22:00,57.8,36.0,30.06,NE,42,7.0,11.0,44,0.00,,---,0.00,VWS V14.01,2013-10-30 19:22:00,
2013-10-30 12:27:00,57.6,35.9,30.06,NE,53,5.0,11.0,44,0.00,,---,0.00,VWS V14.01,2013-10-30 19:27:00,
2013-10-30 12:33:00,58.0,35.7,30.06,NE,36,6.0,10.0,43,0.00,,---,0.00,VWS V14.01,2013-10-30 19:33:00,
2013-10-30 12:38:00,57.9,35.0,30.05,North,5,9.0,10.0,42,0.00,,---,0.00,VWS V14.01,2013-10-30 19:38:00,
2013-10-30 12:43:00,57.9,35.0,30.05,NNE,20,6.0,14.0,42,0.00,,---,0.00,VWS V14.01,2013-10-30 19:43:00,
2013-10-30 12:48:00,57.8,34.9,30.05,North,5,5.0,8.0,42,0.00,,---,0.00,VWS V14.01,2013-10-30 19:48:00,
2013-10-30 12:53:00,58.1,35.2,30.05,SSE,165,0.0,8.0,42,0.00,,---,0.00,VWS V14.01,2013-10-30 19:53:00,
2013-10-30 12:58:00,58.8,35.2,30.05,NE,35,8.0,8.0,41,0.00,,---,0.00,VWS V14.01,2013-10-30 19:58:00,
2013-10-30 13:03:00,58.8,34.5,30.04,NE,47,8.0,10.0,40,0.00,,---,0.00,VWS V14.01,2013-10-30 20:03:00,
2013-10-30 13:08:00,59.1,34.8,30.04,ESE,108,2.0,10.0,40,0.00,,---,0.00,VWS V14.01,2013-10-30 20:08:00,
2013-10-30 13:13:00,59.5,34.5,30.03,ESE,113,3.0,10.0,39,0.00,,---,0.00,VWS V14.01,2013-10-30 20:13:00,
2013-10-30 13:18:00,59.8,35.5,30.03,ESE,111,2.0,4.0,40,0.00,,---,0.00,VWS V14.01,2013-10-30 20:18:00,
2013-10-30 13:23:00,59.6,34.0,30.03,NNE,23,4.0,12.0,38,0.00,,---,0.00,VWS V14.01,2013-10-30 20:23:00,
2013-10-30 13:28:00,59.5,33.9,30.03,NNE,13,5.0,12.0,38,0.00,,---,0.00,VWS V14.01,2013-10-30 20:28:00,
2013-10-30 13:33:00,59.3,34.4,30.03,East,93,6.0,7.0,39,0.00,,---,0.00,VWS V14.01,2013-10-30 20:33:00,
2013-10-30 13:38:00,59.5,33.9,30.02,NNE,28,8.0,10.0,38,0.00,,---,0.00,VWS V14.01,2013-10-30 20:38:00,
2013-10-30 13:43:00,59.6,34.0,30.03,NW,309,5.0,10.0,38,0.00,,---,0.00,VWS V14.01,2013-10-30 20:43:00,
2013-10-30 13:48:00,59.7,34.1,30.03,NNW,341,4.0,11.0,38,0.00,,---,0.00,VWS V14.01,2013-10-30 20:48:00,
2013-10-30 13:53:00,59.8,34.2,30.02,North,10,4.0,11.0,38,0.00,,---,0.00,VWS V14.01,2013-10-30 20:53:00,
2013-10-30 13:58:00,60.6,33.5,30.02,NE,49,11.0,11.0,36,0.00,,---,0.00,VWS V14.01,2013-10-30 20:58:00,
2013-10-30 14:03:00,60.2,33.2,30.02,East,101,4.0,11.0,36,0.00,,---,0.00,VWS V14.01,2013-10-30 21:03:00,
2013-10-30 14:08:00,60.4,33.3,30.02,WNW,301,4.0,11.0,36,0.00,,---,0.00,VWS V14.01,2013-10-30 21:08:00,
2013-10-30 14:13:00,60.2,33.2,30.02,North,11,0.0,11.0,36,0.00,,---,0.00,VWS V14.01,2013-10-30 21:13:00,
2013-10-30 14:18:00,60.5,33.4,30.02,NW,307,4.0,9.0,36,0.00,,---,0.00,VWS V14.01,2013-10-30 21:18:00,
2013-10-30 14:23:00,60.6,32.8,30.01,NE,36,5.0,9.0,35,0.00,,---,0.00,VWS V14.01,2013-10-30 21:23:00,
2013-10-30 14:28:00,60.8,33.0,30.01,NNE,33,2.0,10.0,35,0.00,,---,0.00,VWS V14.01,2013-10-30 21:28:00,
2013-10-30 14:33:00,60.6,32.8,30.01,NNW,330,0.0,8.0,35,0.00,,---,0.00,VWS V14.01,2013-10-30 21:33:00,
2013-10-30 14:38:00,61.1,32.5,30.01,NNE,16,11.0,12.0,34,0.00,,---,0.00,VWS V14.01,2013-10-30 21:38:00,
2013-10-30 14:43:00,61.0,32.5,30.01,North,5,10.0,13.0,34,0.00,,---,0.00,VWS V14.01,2013-10-30 21:43:00,
2013-10-30 14:48:00,61.2,32.6,30.01,NNE,23,1.0,9.0,34,0.00,,---,0.00,VWS V14.01,2013-10-30 21:48:00,
2013-10-30 14:53:00,61.4,32.8,30.01,NNE,26,0.0,9.0,34,0.00,,---,0.00,VWS V14.01,2013-10-30 21:53:00,
2013-10-30 14:58:00,61.4,32.1,30.01,East,94,0.0,9.0,33,0.00,,---,0.00,VWS V14.01,2013-10-30 21:58:00,
2013-10-30 15:03:00,61.7,32.3,30.01,NE,37,6.0,9.0,33,0.00,,---,0.00,VWS V14.01,2013-10-30 22:03:00,
2013-10-30 15:08:00,61.8,32.4,30.01,NNW,338,1.0,9.0,33,0.00,,---,0.00,VWS V14.01,2013-10-30 22:08:00,
2013-10-30 15:13:00,62.0,32.6,30.01,NNW,331,4.0,9.0,33,0.00,,---,0.00,VWS V14.01,2013-10-30 22:13:00,
2013-10-30 15:18:00,61.9,31.7,30.01,NW,309,5.0,9.0,32,0.00,,---,0.00,VWS V14.01,2013-10-30 22:18:00,
2013-10-30 15:23:00,61.8,31.6,30.01,NNW,339,2.0,9.0,32,0.00,,---,0.00,VWS V14.01,2013-10-30 22:23:00,
2013-10-30 15:28:00,61.8,31.6,30.01,North,352,3.0,9.0,32,0.00,,---,0.00,VWS V14.01,2013-10-30 22:28:00,
2013-10-30 15:33:00,61.8,32.4,30.00,NNE,26,7.0,7.0,33,0.00,,---,0.00,VWS V14.01,2013-10-30 22:33:00,
2013-10-30 15:38:00,62.0,31.8,30.00,NNE,20,3.0,7.0,32,0.00,,---,0.00,VWS V14.01,2013-10-30 22:38:00,
2013-10-30 15:43:00,62.2,32.0,30.00,WNW,296,2.0,7.0,32,0.00,,---,0.00,VWS V14.01,2013-10-30 22:43:00,
2013-10-30 15:48:00,62.6,31.6,30.00,NE,48,5.0,9.0,31,0.00,,---,0.00,VWS V14.01,2013-10-30 22:48:00,
2013-10-30 15:53:00,62.5,30.7,30.00,ENE,61,5.0,9.0,30,0.00,,---,0.00,VWS V14.01,2013-10-30 22:53:00,
2013-10-30 15:58:00,62.2,30.4,30.00,NNE,33,2.0,9.0,30,0.00,,---,0.00,VWS V14.01,2013-10-30 22:58:00,
2013-10-30 16:04:00,62.2,30.4,30.00,NNW,328,3.0,5.0,30,0.00,,---,0.00,VWS V14.01,2013-10-30 23:04:00,
2013-10-30 16:09:00,62.6,30.8,30.00,NNW,328,0.0,5.0,30,0.00,,---,0.00,VWS V14.01,2013-10-30 23:09:00,
2013-10-30 16:14:00,62.6,29.9,30.00,NNE,33,2.0,6.0,29,0.00,,---,0.00,VWS V14.01,2013-10-30 23:14:00,
2013-10-30 16:19:00,62.4,30.6,30.00,SE,145,0.0,6.0,30,0.00,,---,0.00,VWS V14.01,2013-10-30 23:19:00,
2013-10-30 16:24:00,63.4,30.6,30.00,SSE,150,0.0,6.0,29,0.00,,---,0.00,VWS V14.01,2013-10-30 23:24:00,
2013-10-30 16:29:00,63.6,29.9,30.00,NNE,27,2.0,2.0,28,0.00,,---,0.00,VWS V14.01,2013-10-30 23:29:00,
2013-10-30 16:34:00,62.8,29.2,30.00,East,84,0.0,5.0,28,0.00,,---,0.00,VWS V14.01,2013-10-30 23:34:00,
2013-10-30 16:39:00,62.7,29.1,30.00,East,93,0.0,5.0,28,0.00,,---,0.00,VWS V14.01,2013-10-30 23:39:00,
2013-10-30 16:44:00,62.6,29.1,30.00,NNE,33,2.0,4.0,28,0.00,,---,0.00,VWS V14.01,2013-10-30 23:44:00,
2013-10-30 16:49:00,62.6,29.9,30.00,East,81,1.0,4.0,29,0.00,,---,0.00,VWS V14.01,2013-10-30 23:49:00,
2013-10-30 16:54:00,62.8,30.1,30.00,NE,35,2.0,4.0,29,0.00,,---,0.00,VWS V14.01,2013-10-30 23:54:00,
2013-10-30 16:59:00,62.7,29.1,30.00,East,94,0.0,0.0,28,0.00,,---,0.00,VWS V14.01,2013-10-30 23:59:00,
2013-10-30 17:04:00,63.8,30.1,30.00,South,174,0.0,2.0,28,0.00,,---,0.00,VWS V14.01,2013-10-31 00:04:00,
2013-10-30 17:09:00,64.1,29.5,30.00,NW,304,2.0,3.0,27,0.00,,---,0.00,VWS V14.01,2013-10-31 00:09:00,
2013-10-30 17:14:00,63.3,29.7,29.99,NNW,348,2.0,2.0,28,0.00,,---,0.00,VWS V14.01,2013-10-31 00:14:00,
2013-10-30 17:19:00,62.9,29.3,29.99,NNE,33,0.0,2.0,28,0.00,,---,0.00,VWS V14.01,2013-10-31 00:19:00,
2013-10-30 17:24:00,62.8,28.4,29.99,NE,37,0.0,2.0,27,0.00,,---,0.00,VWS V14.01,2013-10-31 00:24:00,
2013-10-30 17:29:00,62.7,28.3,29.99,NNE,33,0.0,0.0,27,0.00,,---,0.00,VWS V14.01,2013-10-31 00:29:00,
2013-10-30 17:34:00,62.6,29.1,29.99,NNE,33,0.0,0.0,28,0.00,,---,0.00,VWS V14.01,2013-10-31 00:34:00,
2013-10-30 17:39:00,62.3,28.8,29.99,ENE,68,0.0,0.0,28,0.00,,---,0.00,VWS V14.01,2013-10-31 00:39:00,
2013-10-30 17:45:00,61.8,28.4,29.99,NE,42,0.0,0.0,28,0.00,,---,0.00,VWS V14.01,2013-10-31 00:45:00,
2013-10-30 17:50:00,61.4,28.9,29.99,NNE,26,0.0,0.0,29,0.00,,---,0.00,VWS V14.01,2013-10-31 00:50:00,
2013-10-30 17:55:00,60.9,29.3,29.99,NNE,15,0.0,0.0,30,0.00,,---,0.00,VWS V14.01,2013-10-31 00:55:00,
2013-10-30 18:00:00,60.5,28.9,30.00,North,355,0.0,0.0,30,0.00,,---,0.00,VWS V14.01,2013-10-31 01:00:00,
2013-10-30 18:05:00,60.2,29.5,30.00,North,5,0.0,0.0,31,0.00,,---,0.00,VWS V14.01,2013-10-31 01:05:00,
2013-10-30 18:10:00,59.7,29.0,30.00,North,5,0.0,0.0,31,0.00,,---,0.00,VWS V14.01,2013-10-31 01:10:00,
2013-10-30 18:15:00,59.2,29.4,30.00,North,5,0.0,0.0,32,0.00,,---,0.00,VWS V14.01,2013-10-31 01:15:00,
2013-10-30 18:20:00,58.5,31.7,30.00,North,5,0.0,0.0,36,0.00,,---,0.00,VWS V14.01,2013-10-31 01:20:00,
2013-10-30 18:25:00,57.7,31.0,30.00,SSW,210,0.0,0.0,36,0.00,,---,0.00,VWS V14.01,2013-10-31 01:25:00,
2013-10-30 18:30:00,57.3,31.3,30.00,SSW,210,0.0,0.0,37,0.00,,---,0.00,VWS V14.01,2013-10-31 01:30:00,
2013-10-30 18:35:00,57.2,31.2,30.00,SSW,203,0.0,0.0,37,0.00,,---,0.00,VWS V14.01,2013-10-31 01:35:00,
2013-10-30 18:40:00,56.7,31.4,30.00,SSW,198,0.0,0.0,38,0.00,,---,0.00,VWS V14.01,2013-10-31 01:40:00,
2013-10-30 18:45:00,55.9,32.0,30.01,SW,216,0.0,0.0,40,0.00,,---,0.00,VWS V14.01,2013-10-31 01:45:00,
2013-10-30 18:50:00,55.4,32.1,30.01,SSW,210,0.0,0.0,41,0.00,,---,0.00,VWS V14.01,2013-10-31 01:50:00,
2013-10-30 18:55:00,54.8,32.2,30.01,SSW,207,0.0,0.0,42,0.00,,---,0.00,VWS V14.01,2013-10-31 01:55:00,
2013-10-30 19:00:00,54.3,32.3,30.01,SSW,197,0.0,0.0,43,0.00,,---,0.00,VWS V14.01,2013-10-31 02:00:00,
2013-10-30 19:05:00,53.7,32.9,30.01,SSW,193,0.0,0.0,45,0.00,,---,0.00,VWS V14.01,2013-10-31 02:05:00,
2013-10-30 19:10:00,53.3,32.5,30.01,South,187,2.0,2.0,45,0.00,,---,0.00,VWS V14.01,2013-10-31 02:10:00,
2013-10-30 19:15:00,52.9,32.7,30.01,South,191,1.0,2.0,46,0.00,,---,0.00,VWS V14.01,2013-10-31 02:15:00,
2013-10-30 19:20:00,52.7,32.5,30.01,South,174,1.0,2.0,46,0.00,,---,0.00,VWS V14.01,2013-10-31 02:20:00,
2013-10-30 19:25:00,52.6,33.0,30.01,SSW,198,2.0,2.0,47,0.00,,---,0.00,VWS V14.01,2013-10-31 02:25:00,
2013-10-30 19:30:00,52.5,32.9,30.02,SSW,195,2.0,2.0,47,0.00,,---,0.00,VWS V14.01,2013-10-31 02:30:00,
2013-10-30 19:35:00,52.3,32.7,30.02,South,184,2.0,3.0,47,0.00,,---,0.00,VWS V14.01,2013-10-31 02:35:00,
2013-10-30 19:40:00,52.1,32.5,30.02,SSW,208,1.0,3.0,47,0.00,,---,0.00,VWS V14.01,2013-10-31 02:40:00,
2013-10-30 19:45:00,51.8,32.8,30.02,South,177,1.0,2.0,48,0.00,,---,0.00,VWS V14.01,2013-10-31 02:45:00,
2013-10-30 19:50:00,51.5,32.5,30.02,South,170,0.0,2.0,48,0.00,,---,0.00,VWS V14.01,2013-10-31 02:50:00,
2013-10-30 19:55:00,51.4,31.9,30.02,SSW,200,0.0,2.0,47,0.00,,---,0.00,VWS V14.01,2013-10-31 02:55:00,
2013-10-30 20:00:00,51.3,31.8,30.02,South,191,0.0,0.0,47,0.00,,---,0.00,VWS V14.01,2013-10-31 03:00:00,
2013-10-30 20:05:00,51.0,32.0,30.02,South,177,0.0,0.0,48,0.00,,---,0.00,VWS V14.01,2013-10-31 03:05:00,
2013-10-30 20:10:00,50.9,31.9,30.02,South,172,0.0,0.0,48,0.00,,---,0.00,VWS V14.01,2013-10-31 03:10:00,
2013-10-30 20:15:00,50.7,31.2,30.02,SSE,165,0.0,0.0,47,0.00,,---,0.00,VWS V14.01,2013-10-31 03:15:00,
2013-10-30 20:20:00,50.7,31.2,30.02,South,191,0.0,0.0,47,0.00,,---,0.00,VWS V14.01,2013-10-31 03:20:00,
2013-10-30 20:25:00,50.7,31.2,30.02,SSW,200,0.0,0.0,47,0.00,,---,0.00,VWS V14.01,2013-10-31 03:25:00,
2013-10-30 20:28:00,50.4,31.5,30.02,WNW,297,0.0,5.0,48,0.00,,---,0.00,VWS V14.01,2013-10-31 03:28:00,
2013-10-30 20:34:00,50.1,30.7,30.03,WNW,302,0.0,3.0,47,0.00,,---,0.00,VWS V14.01,2013-10-31 03:34:00,
2013-10-30 20:39:00,49.4,29.5,30.03,WNW,302,0.0,3.0,46,0.00,,---,0.00,VWS V14.01,2013-10-31 03:39:00,
2013-10-30 20:44:00,49.0,29.1,30.03,WNW,302,0.0,0.0,46,0.00,,---,0.00,VWS V14.01,2013-10-31 03:44:00,
2013-10-30 20:49:00,48.7,28.9,30.03,WNW,299,0.0,0.0,46,0.00,,---,0.00,VWS V14.01,2013-10-31 03:49:00,
2013-10-30 20:54:00,48.5,29.2,30.03,SSW,195,0.0,0.0,47,0.00,,---,0.00,VWS V14.01,2013-10-31 03:54:00,
2013-10-30 20:59:00,48.1,29.4,30.03,South,184,0.0,0.0,48,0.00,,---,0.00,VWS V14.01,2013-10-31 03:59:00,
2013-10-30 21:01:00,48.0,29.8,30.04,South,172,0.0,0.0,49,0.00,,---,0.00,VWS V14.01,2013-10-31 04:01:00,
2013-10-30 21:03:00,47.9,29.7,30.04,South,173,0.0,0.0,49,0.00,,---,0.00,VWS V14.01,2013-10-31 04:03:00,
2013-10-30 21:04:00,47.8,30.1,30.04,SSE,167,0.0,0.0,50,0.00,,---,0.00,VWS V14.01,2013-10-31 04:04:00,
2013-10-30 21:05:00,47.7,30.0,30.04,SSE,162,0.0,0.0,50,0.00,,---,0.00,VWS V14.01,2013-10-31 04:05:00,
2013-10-30 21:08:00,47.6,30.4,30.04,SE,134,0.0,0.0,51,0.00,,---,0.00,VWS V14.01,2013-10-31 04:08:00,
2013-10-30 21:09:00,47.6,30.4,30.04,SE,128,0.0,0.0,51,0.00,,---,0.00,VWS V14.01,2013-10-31 04:09:00,
2013-10-30 21:14:00,47.7,30.0,30.04,SE,129,0.0,0.0,50,0.00,,---,0.00,VWS V14.01,2013-10-31 04:14:00,
2013-10-30 21:19:00,47.7,30.5,30.04,SE,129,0.0,0.0,51,0.00,,---,0.00,VWS V14.01,2013-10-31 04:19:00,
2013-10-30 21:24:00,48.0,31.2,30.04,SE,137,0.0,0.0,52,0.00,,---,0.00,VWS V14.01,2013-10-31 04:24:00,
2013-10-30 21:29:00,47.9,31.1,30.04,SE,142,0.0,0.0,52,0.00,,---,0.00,VWS V14.01,2013-10-31 04:29:00,
2013-10-30 21:34:00,47.9,31.1,30.05,SSE,152,0.0,0.0,52,0.00,,---,0.00,VWS V14.01,2013-10-31 04:34:00,
2013-10-30 21:39:00,48.0,31.2,30.05,SE,139,0.0,0.0,52,0.00,,---,0.00,VWS V14.01,2013-10-31 04:39:00,
2013-10-30 21:44:00,48.1,31.3,30.05,SE,138,0.0,0.0,52,0.00,,---,0.00,VWS V14.01,2013-10-31 04:44:00,
2013-10-30 21:49:00,47.8,31.0,30.05,SE,129,0.0,0.0,52,0.00,,---,0.00,VWS V14.01,2013-10-31 04:49:00,
2013-10-30 21:54:00,47.7,31.4,30.05,SE,128,0.0,0.0,53,0.00,,---,0.00,VWS V14.01,2013-10-31 04:54:00,
2013-10-30 21:59:00,47.6,31.3,30.05,SE,129,0.0,0.0,53,0.00,,---,0.00,VWS V14.01,2013-10-31 04:59:00,
2013-10-30 22:04:00,47.4,31.1,30.06,SE,128,0.0,0.0,53,0.00,,---,0.00,VWS V14.01,2013-10-31 05:04:00,
2013-10-30 22:09:00,47.2,31.0,30.06,SE,128,0.0,0.0,53,0.00,,---,0.00,VWS V14.01,2013-10-31 05:09:00,
2013-10-30 22:14:00,46.9,31.1,30.06,SE,128,0.0,0.0,54,0.00,,---,0.00,VWS V14.01,2013-10-31 05:14:00,
2013-10-30 22:19:00,46.9,31.6,30.06,SE,128,0.0,0.0,55,0.00,,---,0.00,VWS V14.01,2013-10-31 05:19:00,
2013-10-30 22:24:00,46.6,31.3,30.06,SE,129,0.0,0.0,55,0.00,,---,0.00,VWS V14.01,2013-10-31 05:24:00,
2013-10-30 22:29:00,46.5,31.2,30.06,SE,128,0.0,0.0,55,0.00,,---,0.00,VWS V14.01,2013-10-31 05:29:00,
2013-10-30 22:34:00,46.3,31.5,30.06,SE,128,0.0,0.0,56,0.00,,---,0.00,VWS V14.01,2013-10-31 05:34:00,
2013-10-30 22:39:00,45.9,31.5,30.06,SE,129,0.0,0.0,57,0.00,,---,0.00,VWS V14.01,2013-10-31 05:39:00,
2013-10-30 22:44:00,45.8,31.0,30.06,SE,128,0.0,0.0,56,0.00,,---,0.00,VWS V14.01,2013-10-31 05:44:00,
2013-10-30 22:49:00,46.3,31.5,30.07,SE,136,0.0,0.0,56,0.00,,---,0.00,VWS V14.01,2013-10-31 05:49:00,
2013-10-30 22:54:00,45.9,31.1,30.07,SSE,149,0.0,0.0,56,0.00,,---,0.00,VWS V14.01,2013-10-31 05:54:00,
2013-10-30 22:59:00,45.6,31.3,30.07,SSE,148,0.0,0.0,57,0.00,,---,0.00,VWS V14.01,2013-10-31 05:59:00,
2013-10-30 23:04:00,45.4,31.5,30.07,SSE,152,0.0,0.0,58,0.00,,---,0.00,VWS V14.01,2013-10-31 06:04:00,
2013-10-30 23:09:00,45.1,31.6,30.07,SSE,155,0.0,0.0,59,0.00,,---,0.00,VWS V14.01,2013-10-31 06:09:00,
2013-10-30 23:14:00,44.9,31.5,30.07,SSE,160,0.0,0.0,59,0.00,,---,0.00,VWS V14.01,2013-10-31 06:14:00,
2013-10-30 23:19:00,45.3,31.4,30.07,SE,136,0.0,0.0,58,0.00,,---,0.00,VWS V14.01,2013-10-31 06:19:00,
2013-10-30 23:24:00,45.5,31.2,30.07,SE,136,0.0,0.0,57,0.00,,---,0.00,VWS V14.01,2013-10-31 06:24:00,
2013-10-30 23:29:00,45.3,31.0,30.07,SE,136,0.0,0.0,57,0.00,,---,0.00,VWS V14.01,2013-10-31 06:29:00,
2013-10-30 23:34:00,45.1,31.2,30.07,SE,137,0.0,0.0,58,0.00,,---,0.00,VWS V14.01,2013-10-31 06:34:00,
2013-10-30 23:39:00,45.1,31.6,30.07,SE,137,0.0,0.0,59,0.00,,---,0.00,VWS V14.01,2013-10-31 06:39:00,
2013-10-30 23:44:00,44.8,31.4,30.07,SE,135,0.0,0.0,59,0.00,,---,0.00,VWS V14.01,2013-10-31 06:44:00,
2013-10-30 23:49:00,44.6,31.6,30.07,SE,135,0.0,0.0,60,0.00,,---,0.00,VWS V14.01,2013-10-31 06:49:00,
2013-10-30 23:54:00,44.5,31.5,30.07,SE,134,0.0,0.0,60,0.00,,---,0.00,VWS V14.01,2013-10-31 06:54:00,
2013-10-30 23:59:00,44.7,31.3,30.07,SE,142,0.0,0.0,59,0.00,,---,0.00,VWS V14.01,2013-10-31 06:59:00,